カタログに戻る

FENGYUN 1C DEB

運用中SSO
NORAD 32117·DEBRIS·🇨🇳 China

打ち上げ May 10, 1999 から Taiyuan Satellite Launch Center

Loading…

次のパス (今後24時間)

TLE

最新Source: Space-Track

元期: Sep 14, 2026, 08:46 UTC

1 32117U 99025CRK 26257.36528352  .00001204  00000-0  53078-3 0  9998
2 32117  98.5899 301.9609 0026719  11.4707 348.7076 14.25013422987213

AllMySatでFENGYUN 1C DEBをリアルタイム追跡

Download on the App Store